Commit Graph

  • a64ae78833 Update app icons to custom waveform SVG main b000_bug1 dillonj 2026-05-07 02:58:45 -06:00
  • b558ef8a7f Simplify release workflow: deb, rpm, msi v0.1.0 dillonj 2026-05-07 02:15:22 -06:00
  • f1e6c010eb Add AppImage to release bundles dillonj 2026-05-07 01:35:42 -06:00
  • 124f215a0a Add local LLM router and service dillonj 2026-05-07 01:32:19 -06:00
  • 1993aabeac Add release workflow: .deb, .rpm, .pkg.tar.zst, .msi dillonj 2026-05-07 01:25:50 -06:00
  • 573ac9c9f5 Update Ed25519 keypair for license signing dillonj 2026-05-07 00:25:25 -06:00
  • 5d52c8aec5 AI editing now requires Business tier, remove lifetime updates dillonj 2026-05-06 23:39:50 -06:00
  • 8bd1ad5b69 Gate AI editing features behind license (trial users no longer get AI editing) dillonj 2026-05-06 23:21:45 -06:00
  • 850b373d42 removed home dillonj 2026-05-06 23:11:00 -06:00
  • 2212d7b265 features dillonj 2026-05-06 16:47:54 -06:00
  • 813877a7b4 updated features and docs dillonj 2026-05-06 16:15:38 -06:00
  • e4484a57f9 improve home screen dillonj 2026-05-06 16:05:04 -06:00
  • 10437c02ca added tests dillonj 2026-05-06 14:40:58 -06:00
  • 4004312994 more stuff to improve robustness dillonj 2026-05-06 14:25:23 -06:00
  • 9a301fe2a2 robustness plan dillonj 2026-05-06 13:18:53 -06:00
  • 6ac1d68887 help menu dillonj 2026-05-06 13:00:57 -06:00
  • acf7f2e64c more polish dillonj 2026-05-06 12:15:46 -06:00
  • a96e42c9f9 improved tooltips dillonj 2026-05-06 11:41:32 -06:00
  • fd6697b48e polishing dillonj 2026-05-06 10:53:27 -06:00
  • 09ebcbc9ec added marketing plan dillonj 2026-05-06 02:33:18 -06:00
  • 88cd9a21d0 plans and features dillonj 2026-05-06 02:29:10 -06:00
  • 91217f6db0 added free trial timer at welcome screen dillonj 2026-05-06 01:43:55 -06:00
  • 835719a907 added licensing stuff and free trial timer dillonj 2026-05-06 01:35:42 -06:00
  • 810957747b clean up of features dillonj 2026-05-05 23:31:18 -06:00
  • 4d4dfa7f7c implemented the lower priority features; haven't tested them dillonj 2026-05-05 20:46:55 -06:00
  • cde635a660 improved chapters/markers dillonj 2026-05-05 12:29:25 -06:00
  • 21e4255325 verified hotkeys dillonj 2026-05-05 10:22:35 -06:00
  • 1678d28db7 able to re-transcribe dillonj 2026-05-04 23:54:14 -06:00
  • 137dc80cde features update dillonj 2026-05-04 19:01:11 -06:00
  • dd4ce58920 fixed dropdown bar visibility dillonj 2026-05-04 18:39:36 -06:00
  • 5758401dda export works dillonj 2026-05-04 17:43:00 -06:00
  • 90b1999a57 implemented 15,12,18 didn't check 18 dillonj 2026-05-04 16:37:25 -06:00
  • 0c7a4c94c2 trying to fix export issue and waveform load dillonj 2026-04-15 21:51:05 -06:00
  • 168676a9e9 improved feature 11 and UI dillonj 2026-04-15 21:25:47 -06:00
  • 3fa67383c4 feature 10,11 dillonj 2026-04-15 20:57:43 -06:00
  • f121d71f5f added save as dillonj 2026-04-15 20:51:24 -06:00
  • af8e0cf6eb zone previews dillonj 2026-04-15 20:27:24 -06:00
  • 4d3d8a2218 speed zones work now dillonj 2026-04-15 20:17:05 -06:00
  • b7a795f986 UI improvements, moved file name and moved buttons left dillonj 2026-04-15 19:54:39 -06:00
  • 7479acd3ee forgot to add stuff dillonj 2026-04-15 18:02:25 -06:00
  • 17874587a4 improved zone handling dillonj 2026-04-15 18:00:34 -06:00
  • 84edddded8 removed electron dillonj 2026-04-15 17:40:27 -06:00
  • 48d761c713 defaults to project folders; examining zones dillonj 2026-04-15 17:31:41 -06:00
  • 024b9bd806 ai tools finished dillonj 2026-04-15 17:13:56 -06:00
  • d11e26cf2d improved tools for ai dillonj 2026-04-15 16:36:21 -06:00
  • 4f90750497 volume panel; copilot instructions dillonj 2026-04-15 16:10:35 -06:00
  • 0df967507f able to process audio with different model; new project button dillonj 2026-04-11 19:42:30 -06:00
  • b8ec396ebd able to modify trim zones dillonj 2026-04-11 19:13:04 -06:00
  • 140b7a5319 fixed error dillonj 2026-04-09 01:50:19 -06:00
  • 1d17a8f19a trying to fix bug dillonj 2026-04-09 01:36:28 -06:00
  • f9cd2bf579 gitignore cache dillonj 2026-04-08 21:19:52 -06:00
  • d80ff847d8 silence trimmer dillonj 2026-04-03 12:05:44 -06:00
  • 8a7c94d594 delete key can remove zones dillonj 2026-04-03 11:38:58 -06:00
  • 0237d685e5 able to drag edges of zones dillonj 2026-04-03 11:36:08 -06:00
  • 585262c3e7 added cut and mute zones dillonj 2026-04-03 11:14:31 -06:00
  • d7bc6ea74d added split audio dillonj 2026-04-03 10:46:49 -06:00
  • f0568ed267 darker model name text dillonj 2026-04-03 10:46:26 -06:00
  • 7c8c74d04d removed cutscript dillonj 2026-04-03 10:35:07 -06:00
  • addd87c45b Remove obsolete open-cutscript script dillonj 2026-04-03 10:34:04 -06:00
  • bb9ac53ae5 Remove CutScript submodule - can be cloned separately from https://github.com/DataAnts-AI/CutScript.git dillonj 2026-04-03 10:33:56 -06:00
  • c7445206cc added distil models dillonj 2026-04-03 10:25:48 -06:00
  • ea3f1d2b23 close sh;able to save/load projects dillonj 2026-03-30 18:36:41 -06:00
  • 246d816f84 added close; fixed some issues dillonj 2026-03-28 15:09:56 -06:00
  • 2ffc406b10 changed to python312 dillonj 2026-03-28 12:26:45 -06:00
  • 4a857d8cbf added api for ai; got backend working dillonj 2026-03-26 23:39:31 -06:00
  • 164b2f87d4 got cpu based backend working; trying python/gpu solution bc faster probs dillonj 2026-03-26 00:58:57 -06:00
  • 00ee076baa frontend changes dillonj 2026-03-25 01:41:40 -06:00
  • b4bcb8f3f2 i think i got step one working dillonj 2026-03-25 01:22:30 -06:00
  • 4230ae6cb9 added features doc dillonj 2026-03-25 00:11:35 -06:00
  • c01db38eb3 update files dillonj 2026-03-24 23:55:29 -06:00
  • d134e4ab27 add CutScript submodule dillonj 2026-03-24 23:52:59 -06:00
  • a864b562ae initial commit dillonj 2026-03-24 23:51:02 -06:00
  • e5c47e31b3 Audio DataAnts-AI 2026-03-06 21:49:22 +05:30
  • 78d34133ad Add image to README for visual enhancement DataAnts-AI 2026-03-03 14:45:36 -05:00
  • 33cca5f552 Initial CutScript release - Open-source AI-powered text-based video editor Your Name 2026-03-03 06:31:04 -05:00
  • d1e1fedcae fix: Resolve issues #7, #8, #9 - moviepy, transformers, Whisper OOM Your Name 2026-03-03 02:10:52 -05:00
  • 70c5d32413 feat: Add streaming Ollama support, model caching, and UI improvements Your Name 2026-02-18 10:26:09 -05:00
  • ce398ae1d4 fix: Update moviepy import for v2.x compatibility (closes #6) Your Name 2026-02-13 00:15:07 -05:00
  • 168bf5f573 fix: Free up disk space in GitHub Actions runner Your Name 2026-01-05 17:34:07 -05:00
  • efee0b0abe fix: Resolve protobuf dependency conflict for pyannote.audio 4.x Your Name 2026-01-05 11:30:56 -05:00
  • 4dd3c7600e fix: Remove torch from requirements.txt and use flexible versions Your Name 2026-01-05 11:25:12 -05:00
  • 78e9df31e6 fix: Use flexible PyTorch versions and fix Docker build order Your Name 2026-01-05 10:50:20 -05:00
  • c5cc7c2969 fix: Update PyTorch/torchaudio to 2.1.0 for SpeechBrain 1.0 diarization compatibility Your Name 2026-01-05 09:57:20 -05:00
  • 81f40726e3 Refactor keyword extraction logic to convert stopwords to a list for compatibility with scikit-learn; add checks for empty keywords list in timestamp extraction function. Your Name 2025-09-10 23:33:57 -04:00
  • f04853eba9 Enhance file selection to support additional audio format (M4A) and update README.md to reflect new supported formats for video and audio recordings. Your Name 2025-08-05 11:18:36 -04:00
  • 3346b0df0f Refactor Dockerfile and requirements.txt for improved dependency management; update README.md with clearer installation options and instructions for prebuilt images. Your Name 2025-07-23 14:45:19 -04:00
  • dcf13c1423 Enhance README.md with Docker installation instructions and update Ollama API endpoint to be configurable via environment variable. Your Name 2025-07-17 00:05:23 -04:00
  • c2ee2394d2 Enhance file selection to support multiple video formats (MP4, AVI, MOV, MKV) and provide user guidance on supported formats. Your Name 2025-07-16 23:50:32 -04:00
  • ce9bb9c2e2 Fix summarization issues and improve GPU handling. Update .gitignore for venv DataAnts-AI 2025-04-30 12:09:10 -04:00
  • 9ca396d6fa Update README.md DataAnts-AI 2025-03-03 12:28:32 -05:00
  • 56e947cc71 Update README.md DataAnts-AI 2025-03-03 12:07:30 -05:00
  • 524f0d6a6c Update README.md DataAnts-AI 2025-03-03 08:26:39 -05:00
  • 7ea098bd05 Add installation scripts and update documentation for Phase 3 features Your Name 2025-03-01 20:37:52 -05:00
  • a653ac7f28 Update README.md DataAnts-AI 2025-01-28 17:05:50 -05:00
  • a78d2a6053 Update README.md DataAnts-AI 2025-01-28 17:00:49 -05:00
  • 3c44257d8a Updated with code DataAnts-AI 2025-01-28 17:00:03 -05:00
  • 2b37a68c56 Initial commit DataAnts-AI 2025-01-28 16:57:23 -05:00